Home   Weather   43°11'N, 78°39'W   Past weeks
Flag for USA

Past Weather in 43°11'N, 78°39'W, USA — Yesterday and Last 2 Weeks

Now
82 °F

Partly sunny.


Feels Like: 83 °F
Forecast: 76 / 58 °F
Wind: 13 mph from Southwest

Location: Greater Buffalo International Airport

Current Time: May 19, 2019 at 5:10:08 pm

Latest Report: May 19, 2019 at 3:54 pm


Visibility: 10 mi

Pressure: 29.73 "Hg

Humidity: 55%

Dew Point: 64 °F

Location of 43°11'N, 78°39'WLocation

Past Weather in 43°11'N, 78°39'W — Graph

°F

43°11'N, 78°39'W Temperature Yesterday

Maximum temperature yesterday: 68 °F (at 3:54 pm)
Minimum temperature yesterday: 41 °F (at 5:54 am)
Average temperature yesterday: 56 °F

High & Low Weather Summary for the Past Weeks

 TemperatureHumidityPressure
High83 °F (May 19, 2:54 pm)100% (May 5, 6:20 am)30.39 "Hg (May 5, 6:20 am)
Low39 °F (May 8, 3:54 am)29% (May 8, 5:54 pm)29.65 "Hg (May 17, 2:54 am)
Average52 °F77%29.94 "Hg
* Reported May 4 3:54 pm — May 19 3:54 pm, 43°11'N, 78°39'W. Weather by CustomWeather, © 2019

Note: Actual official high and low records may vary slightly from our data, if they occured in-between our weather recording intervals... More about our weather records

Advertising

43°11'N, 78°39'W Weather History for the Previous 24 Hours

Scroll right to see more
 ConditionsComfort  
Time TempWeatherWind HumidityBarometerVisibility
3:54 pm
Sun, May 19
82 °FPartly sunny.13 mph55%29.73 "Hg10 mi
2:54 pm83 °FPartly sunny.13 mph53%29.77 "Hg10 mi
1:54 pm80 °FScattered clouds.18 mph58%29.80 "Hg10 mi
12:54 pm80 °FPassing clouds.16 mph60%29.81 "Hg10 mi
11:54 am73 °FLight rain. Partly sunny.13 mph74%29.84 "Hg9 mi
10:54 am80 °FPartly sunny.12 mph56%29.83 "Hg10 mi
9:54 am79 °FPassing clouds.12 mph58%29.85 "Hg10 mi
8:54 am75 °FBroken clouds.7 mph66%29.86 "Hg10 mi
7:54 am68 °FScattered clouds.6 mph78%29.86 "Hg10 mi
6:54 am62 °FPassing clouds.8 mph90%29.86 "Hg10 mi
5:54 am62 °FScattered clouds.6 mph86%29.85 "Hg10 mi
4:54 am64 °FPassing clouds.7 mph87%29.84 "Hg10 mi
3:54 am64 °FPartly cloudy.3 mph84%29.85 "Hg10 mi
2:54 am63 °FPartly cloudy.7 mph84%29.85 "Hg10 mi
1:54 am63 °FPassing clouds.7 mph81%29.85 "Hg10 mi
12:54 am61 °FPartly cloudy.8 mph75%29.88 "Hg10 mi
11:54 pm
Sat, May 18
59 °FPassing clouds.7 mph67%29.88 "Hg10 mi
10:54 pm58 °FPassing clouds.6 mph65%29.90 "Hg10 mi
9:54 pm59 °FPassing clouds.8 mph60%29.92 "Hg10 mi
8:54 pm60 °FPassing clouds.7 mph58%29.93 "Hg10 mi
7:54 pm63 °FPartly sunny.8 mph52%29.95 "Hg10 mi
6:54 pm64 °FPartly sunny.13 mph52%29.94 "Hg10 mi
5:54 pm65 °FPartly sunny.12 mph52%29.95 "Hg10 mi
Weather by CustomWeather, © 2019

See weather overview